When you browse on this site, cookies collect data to enhance your experience and personalize the content and advertising you see.
Visit our Privacy Policy to learn more. By continuing to use the site, you agree to this use of cookies and data.
  • în România
  • Lista ţărilor
  • Pe 7 zile
  • Temperatura apei
  • Meteo pe hartă
  • Widget-uri
  • user-avatar
    Intrare

    Meteo pe oră la Brčko

    Astăzi, 15 Octombrie, Marţi

    Timp Temperatura Precipitaţii Vânt Presiune Umiditate
    00:00 +16°C° 0 mm 1 m/s 755 mmHg 67%
    01:00 +16°C° 0 mm 1 m/s 755 mmHg 69%
    02:00 +15°C° 0 mm 1 m/s 754 mmHg 70%
    03:00 +15°C° 0 mm 1 m/s 754 mmHg 71%
    04:00 +14°C° 0 mm 1 m/s 754 mmHg 72%
    05:00 +15°C° 0 mm 1 m/s 754 mmHg 70%
    06:00 +15°C° 0 mm 1 m/s 754 mmHg 68%
    07:00 +15°C° 0 mm 1 m/s 754 mmHg 66%
    08:00 +19°C° 0 mm 1 m/s 754 mmHg 57%
    09:00 +21°C° 0 mm 1 m/s 754 mmHg 49%
    10:00 +24°C° 0 mm 1 m/s 754 mmHg 40%
    11:00 +25°C° 0 mm 1 m/s 753 mmHg 36%
    12:00 +27°C° 0 mm 1 m/s 753 mmHg 33%
    13:00 +26°C° 0 mm 0 m/s 753 mmHg 29%
    14:00 +27°C° 0 mm 1 m/s 752 mmHg 32%
    15:00 +26°C° 0 mm 1 m/s 752 mmHg 34%
    16:00 +26°C° 0 mm 1 m/s 751 mmHg 37%
    17:00 +24°C° 0 mm 1 m/s 752 mmHg 41%
    18:00 +21°C° 0 mm 1 m/s 752 mmHg 45%
    19:00 +19°C° 0 mm 1 m/s 752 mmHg 50%
    20:00 +19°C° 0 mm 1 m/s 752 mmHg 50%
    21:00 +18°C° 0 mm 1 m/s 753 mmHg 51%
    22:00 +18°C° 0 mm 1 m/s 753 mmHg 52%
    23:00 +18°C° 0 mm 1 m/s 753 mmHg 53%

    Mâine, 16 Octombrie, Miercuri

    Timp Temperatura Precipitaţii Vânt Presiune Umiditate
    00:00 +16°C° 0 mm 1 m/s 753 mmHg 54%
    01:00 +16°C° 0 mm 1 m/s 753 mmHg 55%
    02:00 +15°C° 0 mm 1 m/s 753 mmHg 57%
    03:00 +15°C° 0 mm 1 m/s 753 mmHg 59%
    04:00 +14°C° 0 mm 1 m/s 753 mmHg 61%
    05:00 +15°C° 0 mm 1 m/s 753 mmHg 61%
    06:00 +15°C° 0 mm 1 m/s 753 mmHg 61%
    07:00 +15°C° 0 mm 1 m/s 754 mmHg 61%
    08:00 +19°C° 0 mm 1 m/s 754 mmHg 53%
    09:00 +20°C° 0 mm 0 m/s 754 mmHg 46%
    10:00 +23°C° 0 mm 0 m/s 754 mmHg 38%
    11:00 +26°C° 0 mm 1 m/s 754 mmHg 36%
    12:00 +26°C° 0 mm 1 m/s 754 mmHg 34%
    13:00 +27°C° 0 mm 2 m/s 753 mmHg 33%
    14:00 +26°C° 0 mm 2 m/s 753 mmHg 35%
    15:00 +25°C° 0 mm 2 m/s 753 mmHg 38%
    16:00 +24°C° 0 mm 2 m/s 753 mmHg 41%
    17:00 +23°C° 0 mm 2 m/s 754 mmHg 46%
    18:00 +20°C° 0 mm 2 m/s 754 mmHg 51%
    19:00 +19°C° 0 mm 1 m/s 754 mmHg 56%
    20:00 +18°C° 0 mm 1 m/s 754 mmHg 59%
    21:00 +18°C° 0 mm 1 m/s 755 mmHg 63%
    22:00 +16°C° 0 mm 1 m/s 755 mmHg 66%
    23:00 +16°C° 0 mm 1 m/s 755 mmHg 68%

    Poimâine, 17 Octombrie, Joi

    Timp Temperatura Precipitaţii Vânt Presiune Umiditate
    00:00 +15°C° 0 mm 1 m/s 755 mmHg 70%
    01:00 +14°C° 0 mm 0 m/s 755 mmHg 72%
    02:00 +14°C° 0 mm 1 m/s 755 mmHg 74%
    03:00 +14°C° 0 mm 1 m/s 755 mmHg 75%
    04:00 +14°C° 0 mm 1 m/s 755 mmHg 77%
    05:00 +14°C° 0 mm 1 m/s 755 mmHg 76%
    06:00 +14°C° 0 mm 1 m/s 755 mmHg 75%
    07:00 +15°C° 0 mm 1 m/s 755 mmHg 75%
    08:00 +18°C° 0 mm 1 m/s 755 mmHg 66%
    09:00 +20°C° 0 mm 1 m/s 755 mmHg 57%
    10:00 +23°C° 0 mm 1 m/s 755 mmHg 49%
    11:00 +24°C° 0 mm 1 m/s 755 mmHg 45%
    12:00 +25°C° 0 mm 1 m/s 754 mmHg 42%
    13:00 +26°C° 0 mm 1 m/s 754 mmHg 39%
    14:00 +26°C° 0 mm 1 m/s 754 mmHg 41%
    15:00 +25°C° 0 mm 1 m/s 754 mmHg 44%
    16:00 +25°C° 0 mm 1 m/s 754 mmHg 46%
    17:00 +23°C° 0 mm 1 m/s 754 mmHg 51%
    18:00 +19°C° 0 mm 0 m/s 754 mmHg 55%
    19:00 +17°C° 0 mm 0 m/s 754 mmHg 59%
    20:00 +17°C° 0 mm 0 m/s 755 mmHg 61%
    21:00 +16°C° 0 mm 0 m/s 755 mmHg 62%
    22:00 +18°C° 0 mm 1 m/s 755 mmHg 64%
    23:00 +18°C° 0 mm 1 m/s 755 mmHg 65%

    18 Octombrie, Vineri

    Timp Temperatura Precipitaţii Vânt Presiune Umiditate
    00:00 +16°C° 0 mm 1 m/s 755 mmHg 67%
    01:00 +16°C° 0 mm 1 m/s 755 mmHg 69%
    02:00 +15°C° 0 mm 1 m/s 755 mmHg 71%
    03:00 +15°C° 0 mm 1 m/s 755 mmHg 73%
    04:00 +15°C° 0 mm 1 m/s 755 mmHg 75%
    05:00 +15°C° 0 mm 1 m/s 755 mmHg 74%
    06:00 +15°C° 0 mm 1 m/s 755 mmHg 74%
    07:00 +15°C° 0 mm 1 m/s 755 mmHg 74%
    08:00 +19°C° 0 mm 1 m/s 755 mmHg 66%
    09:00 +19°C° 0 mm 0 m/s 755 mmHg 58%
    10:00 +21°C° 0 mm 0 m/s 755 mmHg 50%
    11:00 +24°C° 0 mm 1 m/s 755 mmHg 47%
    12:00 +25°C° 0 mm 1 m/s 754 mmHg 44%
    13:00 +26°C° 0 mm 1 m/s 754 mmHg 40%
    14:00 +26°C° 0 mm 1 m/s 754 mmHg 43%
    15:00 +25°C° 0 mm 1 m/s 754 mmHg 45%
    16:00 +24°C° 0 mm 1 m/s 754 mmHg 47%
    17:00 +23°C° 0 mm 1 m/s 754 mmHg 52%
    18:00 +21°C° 0 mm 1 m/s 754 mmHg 57%
    19:00 +17°C° 0 mm 0 m/s 754 mmHg 62%
    20:00 +17°C° 0 mm 0 m/s 754 mmHg 64%
    21:00 +18°C° 0 mm 1 m/s 754 mmHg 66%
    22:00 +18°C° 0 mm 1 m/s 755 mmHg 68%
    23:00 +16°C° 0 mm 1 m/s 754 mmHg 71%

    19 Octombrie, Sâmbătă

    Timp Temperatura Precipitaţii Vânt Presiune Umiditate
    00:00 +16°C° 0 mm 1 m/s 754 mmHg 73%
    01:00 +16°C° 0 mm 1 m/s 754 mmHg 76%
    02:00 +15°C° 0 mm 1 m/s 754 mmHg 78%
    03:00 +15°C° 0 mm 1 m/s 754 mmHg 80%
    04:00 +14°C° 0 mm 1 m/s 754 mmHg 82%
    05:00 +15°C° 0 mm 1 m/s 754 mmHg 82%
    06:00 +15°C° 0 mm 1 m/s 754 mmHg 81%
    07:00 +15°C° 0 mm 1 m/s 755 mmHg 80%
    08:00 +18°C° 0 mm 1 m/s 754 mmHg 71%
    09:00 +19°C° 0 mm 0 m/s 754 mmHg 63%
    10:00 +21°C° 0 mm 0 m/s 754 mmHg 54%
    11:00 +22°C° 0 mm 0 m/s 754 mmHg 50%
    12:00 +23°C° 0 mm 0 m/s 754 mmHg 45%
    13:00 +24°C° 0 mm 0 m/s 754 mmHg 41%
    14:00 +26°C° 0 mm 1 m/s 753 mmHg 44%
    15:00 +25°C° 0 mm 1 m/s 753 mmHg 47%
    16:00 +24°C° 0 mm 1 m/s 753 mmHg 49%
    17:00 +22°C° 0 mm 1 m/s 753 mmHg 54%
    18:00 +21°C° 0 mm 1 m/s 753 mmHg 58%
    19:00 +17°C° 0 mm 0 m/s 754 mmHg 63%
    20:00 +19°C° 0 mm 1 m/s 754 mmHg 64%
    21:00 +18°C° 0 mm 1 m/s 754 mmHg 65%
    22:00 +18°C° 0 mm 1 m/s 754 mmHg 67%
    23:00 +16°C° 0 mm 1 m/s 754 mmHg 67%

    20 Octombrie, Duminică

    Timp Temperatura Precipitaţii Vânt Presiune Umiditate
    00:00 +16°C° 0 mm 1 m/s 754 mmHg 68%
    01:00 +15°C° 0 mm 1 m/s 754 mmHg 68%
    02:00 +15°C° 0 mm 1 m/s 753 mmHg 68%
    03:00 +15°C° 0 mm 1 m/s 753 mmHg 69%
    04:00 +14°C° 0 mm 1 m/s 753 mmHg 69%
    05:00 +14°C° 0 mm 1 m/s 753 mmHg 68%
    06:00 +14°C° 0 mm 1 m/s 753 mmHg 67%
    07:00 +15°C° 0 mm 1 m/s 754 mmHg 65%
    08:00 +18°C° 0 mm 1 m/s 754 mmHg 56%
    09:00 +21°C° 0 mm 1 m/s 753 mmHg 47%
    10:00 +24°C° 0 mm 2 m/s 753 mmHg 38%
    11:00 +25°C° 0 mm 2 m/s 753 mmHg 35%
    12:00 +27°C° 0 mm 2 m/s 753 mmHg 31%
    13:00 +28°C° 0 mm 2 m/s 753 mmHg 28%
    14:00 +27°C° 0 mm 2 m/s 753 mmHg 31%
    15:00 +26°C° 0 mm 1 m/s 753 mmHg 35%
    16:00 +25°C° 0 mm 1 m/s 752 mmHg 38%
    17:00 +24°C° 0 mm 1 m/s 753 mmHg 43%
    18:00 +22°C° 0 mm 1 m/s 753 mmHg 47%
    19:00 +20°C° 0 mm 1 m/s 753 mmHg 51%
    20:00 +20°C° 0 mm 1 m/s 754 mmHg 55%
    21:00 +19°C° 0 mm 1 m/s 754 mmHg 58%
    22:00 +17°C° 0 mm 2 m/s 754 mmHg 62%
    23:00 +17°C° 0 mm 2 m/s 754 mmHg 64%
    Arată mai mult